VK4CWL-13 Weather Reports


Display with metric or nautical units.
time (UTC)temp
F
wind
direction
speed
MPH
gust
MPH
rain 1hr
in
rain 24hr
in
rain mn
in
humidity
%
barometer
mb
20260505063735 80 270 0.0 2.0 0.00 0.00 0.00 55 1015.0
20260505063233 79 157 1.0 2.0 0.00 0.00 0.00 55 1015.0
20260505062731 80 225 0.0 2.0 0.00 0.00 0.00 54 1014.9
20260505062231 80 180 1.0 2.0 0.00 0.00 0.00 54 1014.7
20260505061727 80 146 1.0 2.0 0.00 0.00 0.00 54 1014.9
20260505061224 80 180 1.0 3.0 0.00 0.00 0.00 55 1014.9
20260505060721 79 135 0.0 3.0 0.00 0.00 0.00 55 1014.9
20260505060219 79 135 2.0 3.0 0.00 0.00 0.00 55 1014.8
20260505055717 79 236 0.0 2.0 0.00 0.00 0.00 55 1014.7
20260505055215 79 180 1.0 3.0 0.00 0.00 0.00 55 1015.0
20260505054712 79 135 3.0 3.0 0.00 0.00 0.00 55 1014.9
20260505054210 79 157 2.0 3.0 0.00 0.00 0.00 55 1015.0
20260505053710 80 270 2.0 3.0 0.00 0.00 0.00 55 1014.9
20260505053206 80 247 3.0 3.0 0.00 0.00 0.00 55 1015.0
20260505052203 79 225 1.0 2.0 0.00 0.00 0.00 55 1015.0
20260505051658 80 180 3.0 3.0 0.00 0.00 0.00 55 1014.9
20260505051156 80 247 0.0 3.0 0.00 0.00 0.00 55 1015.0
20260505050654 80 292 4.0 5.0 0.00 0.00 0.00 54 1015.0
20260505050152 80 270 3.0 3.0 0.00 0.00 0.00 54 1015.0
20260505041631 80 225 3.0 4.0 0.00 0.00 0.00 56 1014.7
20260505041129 80 225 2.0 4.0 0.00 0.00 0.00 56 1014.8
20260505040627 80 315 0.0 4.0 0.00 0.00 0.00 56 1014.9
20260505040124 80 270 1.0 3.0 0.00 0.00 0.00 55 1014.9
20260505035622 80 225 0.0 6.0 0.00 0.00 0.00 55 1014.8
20260505035120 80 337 2.0 2.0 0.00 0.00 0.00 56 1014.9
20260505034618 79 270 0.0 3.0 0.00 0.00 0.00 56 1014.8
20260505034115 79 225 1.0 4.0 0.00 0.00 0.00 56 1015.0
20260505033613 79 270 4.0 6.0 0.00 0.00 0.00 56 1015.2
20260505033110 79 326 1.0 4.0 0.00 0.00 0.00 56 1015.1
20260505032608 80 270 1.0 3.0 0.00 0.00 0.00 55 1015.2
20260505032106 80 270 2.0 5.0 0.00 0.00 0.00 55 1015.2
20260505031605 80 337 3.0 4.0 0.00 0.00 0.00 54 1015.1
20260505031102 80 22 3.0 4.0 0.00 0.00 0.00 53 1015.1
20260505030600 80 0 5.0 5.0 0.00 0.00 0.00 54 1015.2
20260505030057 80 292 0.0 3.0 0.00 0.00 0.00 54 1015.1
20260505025555 80 315 3.0 3.0 0.00 0.00 0.00 54 1015.3
20260505025052 80 225 1.0 3.0 0.00 0.00 0.00 55 1015.2
20260505024550 80 180 1.0 3.0 0.00 0.00 0.00 55 1015.4
20260505024048 80 180 3.0 3.0 0.00 0.00 0.00 54 1015.6
20260505023545 80 270 0.0 1.0 0.00 0.00 0.00 55 1015.7
20260505023045 80 90 0.0 2.0 0.00 0.00 0.00 54 1015.9
20260505022541 80 135 2.0 4.0 0.00 0.00 0.00 53 1015.6
20260505022040 80 225 2.0 4.0 0.00 0.00 0.00 56 1015.8
20260505021542 79 135 1.0 1.0 0.00 0.00 0.00 57 1015.9
20260505021036 79 225 1.0 2.0 0.00 0.00 0.00 57 1015.8
20260505020535 79 315 2.0 6.0 0.00 0.00 0.00 56 1015.8
20260505020032 79 45 2.0 6.0 0.00 0.00 0.00 56 1016.0
20260505015527 80 337 4.0 6.0 0.00 0.00 0.00 57 1016.2
20260505015026 80 202 0.0 4.0 0.00 0.00 0.00 58 1016.4
20260505014524 80 225 4.0 4.0 0.00 0.00 0.00 57 1016.2
20260505014022 79 225 1.0 3.0 0.00 0.00 0.00 58 1016.3
20260505013519 79 0 4.0 6.0 0.00 0.00 0.00 58 1016.5
20260505013019 79 337 3.0 3.0 0.00 0.00 0.00 59 1016.7
20260505012514 79 0 3.0 5.0 0.00 0.00 0.00 58 1016.6
20260505012012 79 90 4.0 7.0 0.00 0.00 0.00 59 1016.6
20260505011509 79 90 3.0 7.0 0.00 0.00 0.00 59 1016.6
20260505011007 79 22 7.0 7.0 0.00 0.00 0.00 60 1016.7
20260505010504 78 0 6.0 7.0 0.00 0.00 0.00 62 1017.0
20260505010002 78 45 9.0 9.0 0.00 0.00 0.00 62 1017.0
20260505005500 77 22 2.0 5.0 0.00 0.00 0.00 64 1017.2
20260505004957 77 78 1.0 6.0 0.00 0.00 0.00 64 1017.3
20260505004455 77 326 2.0 8.0 0.00 0.00 0.00 64 1017.5
20260505003953 77 45 4.0 6.0 0.00 0.00 0.00 64 1017.3
20260505003452 76 45 5.0 6.0 0.00 0.00 0.00 65 1017.3
20260505002949 76 45 5.0 7.0 0.00 0.00 0.00 65 1017.5
20260505002446 76 0 7.0 7.0 0.00 0.00 0.00 66 1017.5
20260505001944 76 0 5.0 9.0 0.00 0.00 0.00 67 1017.5
20260505001441 75 22 4.0 10.0 0.00 0.00 0.00 67 1017.6
20260505000939 75 0 3.0 5.0 0.00 0.00 0.00 68 1017.7
20260505000437 75 22 6.0 8.0 0.00 0.00 0.00 67 1017.7
20260504235935 75 56 3.0 8.0 0.00 0.00 0.00 68 1017.9
20260504235433 74 22 3.0 6.0 0.00 0.00 0.00 71 1018.1
20260504234930 74 45 7.0 7.0 0.00 0.00 0.00 71 1018.3
20260504234430 74 135 2.0 6.0 0.00 0.00 0.00 72 1018.3
20260504233926 73 22 6.0 6.0 0.00 0.00 0.00 72 1018.4
20260504233424 73 0 2.0 6.0 0.00 0.00 0.00 75 1018.5
20260504232921 72 33 2.0 4.0 0.00 0.00 0.00 76 1018.4
20260504232418 72 67 2.0 5.0 0.00 0.00 0.00 76 1018.5
20260504231916 72 45 0.0 6.0 0.00 0.00 0.00 77 1018.6
20260504231415 72 90 2.0 6.0 0.00 0.00 0.00 77 1018.5
20260504230912 72 90 5.0 5.0 0.00 0.00 0.00 77 1018.4
20260504230411 71 45 1.0 3.0 0.00 0.00 0.00 79 1018.6
20260504225907 71 45 1.0 3.0 0.00 0.00 0.00 80 1018.4
20260504225406 71 0 0.0 3.0 0.00 0.00 0.00 80 1018.4
20260504224358 70 45 1.0 5.0 0.00 0.00 0.00 82 1018.1
20260504223855 70 45 2.0 4.0 0.00 0.00 0.00 83 1018.3
20260504223352 69 11 2.0 5.0 0.00 0.00 0.00 83 1018.3
20260504222850 69 45 2.0 4.0 0.00 0.00 0.00 84 1018.6
20260504222348 69 90 2.0 4.0 0.00 0.00 0.00 85 1018.5
20260504221846 68 90 3.0 4.0 0.00 0.00 0.00 85 1018.5
20260504221344 68 90 2.0 3.0 0.00 0.00 0.00 85 1018.4
20260504220844 68 45 2.0 3.0 0.00 0.00 0.00 86 1018.4
20260504220339 68 90 1.0 4.0 0.00 0.00 0.00 86 1018.4
20260504215837 67 90 0.0 4.0 0.00 0.00 0.00 87 1018.6
20260504215335 66 135 1.0 3.0 0.00 0.00 0.00 88 1018.6
20260504214832 66 112 2.0 3.0 0.00 0.00 0.00 89 1018.5
20260504214329 65 90 2.0 2.0 0.00 0.00 0.00 89 1018.5
20260504213827 65 135 1.0 1.0 0.00 0.00 0.00 89 1018.5
20260504213325 64 135 1.0 2.0 0.00 0.00 0.00 90 1018.5
20260504212823 64 90 1.0 1.0 0.00 0.00 0.00 90 1018.3
20260504212321 64 135 2.0 2.0 0.00 0.00 0.00 90 1018.3
20260504211818 63 135 1.0 1.0 0.00 0.00 0.00 91 1018.3
20260504211316 63 135 1.0 2.0 0.00 0.00 0.00 91 1018.2
20260504210814 63 90 1.0 2.0 0.00 0.00 0.00 92 1018.3
20260504210312 62 135 1.0 1.0 0.00 0.00 0.00 92 1018.3
20260504205809 62 225 0.0 0.0 0.00 0.00 0.00 92 1018.3
20260504205308 61 180 0.0 1.0 0.00 0.00 0.00 91 1018.4
20260504204806 61 135 1.0 1.0 0.00 0.00 0.00 91 1018.3
20260504204302 61 270 0.0 0.0 0.00 0.00 0.00 90 1018.2
20260504203800 61 270 0.0 0.0 0.00 0.00 0.00 90 1018.1
20260504203258 61 270 0.0 0.0 0.00 0.00 0.00 90 1018.1
20260504202756 61 315 0.0 1.0 0.00 0.00 0.00 91 1018.1
20260504202253 61 315 1.0 1.0 0.00 0.00 0.00 91 1018.0
20260504201751 61 225 0.0 1.0 0.00 0.00 0.00 91 1017.7
20260504201249 60 191 1.0 2.0 0.00 0.00 0.00 91 1017.5
20260504200746 60 180 1.0 2.0 0.00 0.00 0.00 91 1017.3
20260504200246 60 180 2.0 3.0 0.00 0.00 0.00 91 1017.2
20260504195742 60 213 2.0 2.0 0.00 0.00 0.00 90 1017.2
20260504195239 60 180 2.0 2.0 0.00 0.00 0.00 90 1017.1
20260504194739 60 180 2.0 2.0 0.00 0.00 0.00 90 1017.0
20260504194236 60 180 1.0 2.0 0.00 0.00 0.00 90 1016.9
20260504193734 60 180 1.0 2.0 0.00 0.00 0.00 90 1016.9
20260504193231 61 180 1.0 2.0 0.00 0.00 0.00 90 1016.8
20260504192728 60 180 1.0 2.0 0.00 0.00 0.00 90 1016.9
20260504192228 60 180 1.0 2.0 0.00 0.00 0.00 90 1016.9
20260504191723 60 180 2.0 2.0 0.00 0.00 0.00 90 1016.9
20260504191222 60 180 3.0 3.0 0.00 0.00 0.00 91 1017.0
20260504190719 60 180 3.0 4.0 0.00 0.00 0.00 90 1016.8
20260504190216 60 180 2.0 3.0 0.00 0.00 0.00 91 1016.7
20260504185714 60 225 2.0 2.0 0.00 0.00 0.00 89 1016.7
20260504185212 60 180 2.0 3.0 0.00 0.00 0.00 89 1016.6
20260504184710 60 180 1.0 3.0 0.00 0.00 0.00 89 1016.6
20260504184208 60 180 3.0 4.0 0.00 0.00 0.00 89 1016.5
20260504183705 60 180 3.0 3.0 0.00 0.00 0.00 88 1016.4
20260504183203 60 180 1.0 3.0 0.00 0.00 0.00 88 1016.5
20260504182701 60 180 2.0 2.0 0.00 0.00 0.00 88 1016.4
20260504182158 60 180 2.0 3.0 0.00 0.00 0.00 88 1016.4
20260504181656 60 180 3.0 4.0 0.00 0.00 0.00 88 1016.5
20260504181153 60 180 3.0 3.0 0.00 0.00 0.00 87 1016.5
20260504180651 61 135 2.0 2.0 0.00 0.00 0.00 86 1016.5
20260504180149 61 180 0.0 1.0 0.00 0.00 0.00 86 1016.5
20260504175647 61 180 0.0 1.0 0.00 0.00 0.00 86 1016.5
20260504175145 61 180 0.0 0.0 0.00 0.00 0.00 86 1016.4
20260504174643 61 202 0.0 0.0 0.00 0.00 0.00 86 1016.5
20260504174140 62 0 0.0 1.0 0.00 0.00 0.00 86 1016.7
20260504173638 62 225 0.0 1.0 0.00 0.00 0.00 86 1016.6
20260504173135 62 202 1.0 2.0 0.00 0.00 0.00 86 1016.7
20260504172633 62 180 1.0 2.0 0.00 0.00 0.00 86 1016.8
20260504172131 62 168 2.0 2.0 0.00 0.00 0.00 85 1016.7
20260504171628 62 135 1.0 1.0 0.00 0.00 0.00 85 1016.6
20260504171126 62 180 0.0 1.0 0.00 0.00 0.00 85 1016.6
20260504170624 62 135 1.0 1.0 0.00 0.00 0.00 85 1016.6
20260504170122 62 180 0.0 0.0 0.00 0.00 0.00 85 1016.5
20260504151032 62 135 1.0 1.0 0.00 0.00 0.00 81 1016.8
20260504150529 62 168 0.0 0.0 0.00 0.00 0.00 80 1016.8
20260504141003 62 135 1.0 1.0 0.00 0.00 0.00 78 1017.0
20260504140501 62 180 1.0 1.0 0.00 0.00 0.00 77 1017.0
20260504130434 64 315 0.0 0.0 0.00 0.00 0.00 72 1017.1
20260504110339 67 202 2.0 3.0 0.00 0.00 0.00 68 1017.2
20260504100444 68 270 0.0 0.0 0.00 0.00 0.00 62 1016.4
20260504081853 76 270 0.0 0.0 0.00 0.00 0.00 49 1015.1
20260504081351 77 270 0.0 0.0 0.00 0.00 0.00 48 1015.0
20260504080849 77 270 0.0 0.0 0.00 0.00 0.00 48 1015.0
20260504080347 78 270 0.0 0.0 0.00 0.00 0.00 48 1015.0
20260504070320 83 0 0.0 1.0 0.00 0.00 0.00 41 1014.1